This is the latest recevied weather packets stored in our database for station/object W7TJC. If no packets are shown the sender has not sent any weather packets the latest 10 day(s).
| Time | Temp. | Humidity | Pressure | Rain* | Wind** | Luminosity | Snow |
|---|---|---|---|---|---|---|---|
| 1777759795 | 22.78° C | 51% | 1015.8 hPa | 0 mm | - | 29 W/m² | - |
| 1777759491 | 22.22° C | 55% | 1015.4 hPa | 0 mm | - | 31 W/m² | - |
| 1777759188 | 23.33° C | 53% | 1015.9 hPa | 0 mm | - | 34 W/m² | - |
| 1777758885 | 22.78° C | 55% | 1015.8 hPa | 0 mm | - | 78 W/m² | - |
| 1777758582 | 23.33° C | 57% | 1016.1 hPa | 0 mm | - | 491 W/m² | - |
| 1777758279 | 23.33° C | 55% | 1015.9 hPa | 0 mm | - | 540 W/m² | - |
| 1777757976 | 22.78° C | 58% | 1016.1 hPa | 0 mm | - | 564 W/m² | - |
| 1777757673 | 23.33° C | 55% | 1015.8 hPa | 0 mm | - | 524 W/m² | - |
| 1777757372 | 22.22° C | 58% | 1016 hPa | 0 mm | - | 530 W/m² | - |
| 1777757070 | 23.33° C | 58% | 1016.1 hPa | 0 mm | - | 660 W/m² | - |
| 1777756767 | 22.22° C | 59% | 1016.2 hPa | 0 mm | - | 697 W/m² | - |
| 1777756462 | 22.78° C | 55% | 1016.4 hPa | 0 mm | - | 695 W/m² | - |
| 1777756160 | 22.78° C | 59% | 1016 hPa | 0 mm | - | 672 W/m² | - |
| 1777755857 | 22.22° C | 61% | 1016.6 hPa | 0 mm | - | 622 W/m² | - |
| 1777755554 | 21.67° C | 60% | 1016.6 hPa | 0 mm | - | 621 W/m² | - |
| 1777755250 | 22.22° C | 60% | 1016.5 hPa | 0 mm | - | 665 W/m² | - |
| 1777754948 | 21.67° C | 58% | 1016.4 hPa | 0 mm | - | 652 W/m² | - |
| 1777754644 | 21.67° C | 62% | 1016.5 hPa | 0 mm | - | 666 W/m² | - |
| 1777754342 | 21.67° C | 62% | 1016.7 hPa | 0 mm | - | 661 W/m² | - |
| 1777754039 | 21.11° C | 62% | 1016.6 hPa | 0 mm | - | 641 W/m² | - |
| 1777753735 | 21.11° C | 62% | 1016.5 hPa | 0 mm | - | 557 W/m² | - |
| 1777753432 | 21.11° C | 63% | 1016.9 hPa | 0 mm | - | 600 W/m² | - |
| 1777753130 | 20.56° C | 62% | 1016.9 hPa | 0 mm | - | 654 W/m² | - |
| 1777752826 | 20° C | 66% | 1017.1 hPa | 0 mm | - | 672 W/m² | - |
| 1777752523 | 20.56° C | 64% | 1016.9 hPa | 0 mm | - | 687 W/m² | - |
* Rain latest hour (hover to see other rain measurements)
** Current wind speed in m/s (hover to see current wind gust speed)